Location: Newark
(22.3000°N, 114.2000°E)
Time: 02:15:50
(UTC+00:00)

Hubble Space Telescope - Pass Details

Date: 28 October 2019
Orbit: 536 x 540 km, 28.5° (Epoch: 17 November)

Event Time Altitude Azimuth Distance (km) Brightness Sun altitude
Exits shadow 20:45:15 73° 138° (SE) 559 0.8 -23.7°
Drops below altitude 10° 20:49:13 10° 74° (ENE) 1,778 4.4 -22.7°
Sets 20:51:29 0° 73° (ENE) 2,668 5.5 -22.2°
